• Join FlightAware (Why Join?)
  • Login
  • US Flag 
02:14AM EDT


 

Airport Tracker/Info


-or-


 

Live Flight TrackerFlight Track Log ✈ SWA1969 ✈ 17-Apr-2013 ✈ KDAL - KMCI

Flight Track Log - Related Links

Times and Time Zones

All times are in EDT time to prevent confusion due to time zone crossing. See the SWA1969 flight status page for this flight to view local times or setup timezone preferences in your user account.

Time Position Orientation Groundspeed Altitude Reporting Facility
EDT Latitude Longitude Course Direction KTS MPH feet Rate Location/Type
09:22AM 32.8167 -96.8167 128° Southeast 156 180 2,600  Level Dallas / Fort Worth TRACON
09:23AM 32.7833 -96.7667 128° Southeast 210 242 4,900 2,400 Climbing Dallas / Fort Worth TRACON
09:24AM 32.7500 -96.7000 121° Southeast 284 327 7,500 2,400 Climbing Dallas / Fort Worth TRACON
09:26AM 32.9294 -96.6956 North 349 402 12,800 2,460 Climbing Fort Worth Center
09:27AM 33.0175 -96.7619 328° Northwest 359 413 15,500 3,000 Climbing Fort Worth Center
09:28AM 33.1097 -96.8356 326° Northwest 391 450 18,900 2,940 Climbing Fort Worth Center
09:29AM 33.1892 -96.9019 325° Northwest 396 456 21,400 2,040 Climbing Fort Worth Center
09:30AM 33.3042 -96.8964 North 384 442 23,000 1,560 Climbing Fort Worth Center
09:31AM 33.4356 -96.8608 13° North 412 474 24,600 1,740 Climbing Fort Worth Center
09:32AM 33.5564 -96.8253 14° North 433 498 26,500 1,800 Climbing Fort Worth Center
09:33AM 33.6833 -96.7894 13° North 448 516 28,200 1,560 Climbing Fort Worth Center
09:34AM 33.8128 -96.7511 14° North 465 535 29,700 1,440 Climbing Fort Worth Center
09:35AM 33.9439 -96.7150 13° North 477 549 31,100 1,800 Climbing Fort Worth Center
09:36AM 34.0731 -96.6764 14° North 477 549 33,400 1,860 Climbing Fort Worth Center
09:37AM 34.1939 -96.6400 14° North 458 527 34,900 1,380 Climbing Fort Worth Center
09:38AM 34.3211 -96.6039 13° North 458 527 36,200 1,020 Climbing Fort Worth Center
09:39AM 34.4500 -96.5647 14° North 458 527 37,000 360 Climbing Fort Worth Center
09:40AM 34.5750 -96.5283 13° North 458 527 37,000  Level Fort Worth Center
09:41AM 34.7019 -96.4917 13° North 463 533 37,000  Level Fort Worth Center
09:42AM 34.8289 -96.4547 13° North 463 533 37,000  Level Fort Worth Center
09:43AM 34.9581 -96.4128 15° North 469 540 37,000  Level Fort Worth Center
09:44AM 35.0828 -96.3783 13° North 469 540 37,000  Level Fort Worth Center
09:45AM 35.2078 -96.3389 14° North 469 540 37,000  Level Fort Worth Center
09:47AM 35.4081 -96.2789 14° North 467 537 37,000  Level Kansas City Center
09:48AM 35.5328 -96.2400 14° North 467 537 37,000  Level Kansas City Center
09:49AM 35.6839 -96.1958 13° North 467 537 37,000  Level Kansas City Center
09:50AM 35.7939 -96.1625 14° North 466 536 37,000  Level Kansas City Center
09:51AM 35.9469 -96.1161 14° North 469 540 37,000  Level Kansas City Center
09:52AM 36.0742 -96.0778 14° North 468 539 37,000  Level Kansas City Center
09:53AM 36.2014 -96.0389 14° North 467 537 37,000  Level Kansas City Center
09:54AM 36.3275 -96.0008 14° North 464 534 37,000  Level Kansas City Center
09:55AM 36.4536 -95.9614 14° North 463 533 37,000  Level Kansas City Center
09:56AM 36.5781 -95.9239 14° North 457 526 37,000  Level Kansas City Center
09:57AM 36.7031 -95.8839 14° North 457 526 37,000  Level Kansas City Center
09:58AM 36.8292 -95.8456 14° North 460 529 37,000  Level Kansas City Center
09:59AM 36.9536 -95.8067 14° North 459 528 37,000  Level Kansas City Center
10:00AM 37.0783 -95.7667 14° North 460 529 37,000  Level Kansas City Center
10:01AM 37.2283 -95.7197 14° North 461 531 37,000  Level Kansas City Center
10:02AM 37.3522 -95.6800 14° North 458 527 37,000 -540 Level Kansas City Center
10:03AM 37.4778 -95.6394 14° North 462 532 36,000 -1,020 Descending Kansas City Center
10:04AM 37.6039 -95.6006 14° North 464 534 35,000 -1,020 Descending Kansas City Center
10:05AM 37.7319 -95.5742 North 464 534 34,000 -1,080 Descending Kansas City Center
10:06AM 37.8569 -95.5611 North 454 522 32,800 -1,500 Descending Kansas City Center
10:07AM 37.9794 -95.5436 North 447 514 31,000 -2,100 Descending Kansas City Center
10:08AM 38.1183 -95.5247 North 448 516 28,600 -2,400 Descending Kansas City Center
10:09AM 38.2350 -95.5061 North 441 507 26,200 -2,400 Descending Kansas City Center
10:10AM 38.3689 -95.4861 North 434 499 23,600 -2,460 Descending Kansas City Center
10:11AM 38.4831 -95.4706 North 432 497 21,100 -2,280 Descending Kansas City Center
10:12AM 38.6153 -95.4481 North 427 491 19,000 -2,040 Descending Kansas City Center
10:13AM 38.7247 -95.4317 North 412 474 17,100 -1,980 Descending Kansas City Center
10:14AM 38.8372 -95.3769 21° North 406 467 15,000 -2,040 Descending Kansas City Center
10:15AM 38.9075 -95.2772 48° Northeast 393 452 13,000 -1,500 Descending Kansas City Center
10:17AM 38.9744 -95.1817 48° Northeast 381 438 12,000 -540 Descending Kansas City Center
10:18AM 39.0483 -95.0767 48° Northeast 359 413 12,000  Level Kansas City Center
10:19AM 39.1072 -94.9919 48° Northeast 338 389 12,000 -240 Level Kansas City Center
10:20AM 39.1708 -94.9014 48° Northeast 309 356 11,600 -840 Descending Kansas City Center
10:21AM 39.2372 -94.8489 31° Northeast 298 343 10,400 -1,200 Descending Kansas City Center
10:22AM 39.3228 -94.8128 18° North 290 334 9,200 -1,080 Descending Kansas City Center
10:23AM 39.3906 -94.7919 13° North 263 303 8,200 -1,140 Descending Kansas City Center
10:24AM 39.4678 -94.7750 10° North 254 292 7,000 -1,440 Descending Kansas City Center
10:25AM 39.5311 -94.7561 13° North 248 285 5,300 -1,680 Descending Kansas City Center
10:26AM 39.5297 -94.6828 91° East 196 226 3,600 -1,140 Descending Kansas City Center
10:27AM 39.4911 -94.6717 167° South 158 182 3,000 -300 Descending Kansas City Center
10:28AM 39.4469 -94.6844 193° South 145 167 3,000 -120 Level Kansas City Center
10:29AM 39.4108 -94.6950 193° South 139 160 2,800 -420 Descending Kansas City Center
10:30AM 39.3775 -94.7044 192° South 129 148 2,200 -720 Descending Kansas City Center
10:31AM 39.3378 -94.7164 193° South 131 151 1,400 -600 Descending Kansas City Center
10:32AM 39.2953 -94.7283 192° South 138 159 1,000 -420 Descending Kansas City Center